When you browse on this site, cookies collect data to enhance your experience and personalize the content and advertising you see.
Visit our Privacy Policy to learn more. By continuing to use the site, you agree to this use of cookies and data.
  • In Spain
  • List of Countries
  • For 7 days
  • Water Temperature
  • Weather Map
  • Weather Widgets
  • user-avatar
    Login

    Hourly Weather Maidstone

    Today, 5 December, Thursday

    Time Temperature Precipitation Wind Pressure Humidity
    00:00 +3°C° 0 mm 1 mps 763 mmHg 89%
    01:00 +2°C° 0 mm 2 mps 763 mmHg 89%
    02:00 +2°C° 0 mm 2 mps 763 mmHg 90%
    03:00 +1°C° 0 mm 2 mps 762 mmHg 90%
    04:00 +1°C° 0 mm 2 mps 763 mmHg 90%
    05:00 +1°C° 0 mm 2 mps 763 mmHg 90%
    06:00 +2°C° 0 mm 2 mps 763 mmHg 90%
    07:00 +2°C° 0 mm 2 mps 763 mmHg 90%
    08:00 +2°C° 0 mm 2 mps 763 mmHg 91%
    09:00 +2°C° 0 mm 3 mps 763 mmHg 91%
    10:00 +3°C° 0 mm 3 mps 763 mmHg 89%
    11:00 +5°C° 0 mm 4 mps 763 mmHg 87%
    12:00 +6°C° 0 mm 5 mps 763 mmHg 85%
    13:00 +6°C° 0 mm 5 mps 762 mmHg 86%
    14:00 +6°C° 0 mm 5 mps 761 mmHg 87%
    15:00 +7°C° 0 mm 5 mps 760 mmHg 88%
    16:00 +6°C° 0 mm 5 mps 760 mmHg 86%
    17:00 +5°C° 0 mm 6 mps 760 mmHg 84%
    18:00 +5°C° 0 mm 6 mps 760 mmHg 83%
    19:00 +6°C° 0.1 mm 7 mps 760 mmHg 81%
    20:00 +6°C° 0.1 mm 8 mps 759 mmHg 80%
    21:00 +6°C° 0.1 mm 8 mps 759 mmHg 79%
    22:00 +7°C° 0 mm 8 mps 758 mmHg 80%
    23:00 +7°C° 0 mm 8 mps 758 mmHg 81%

    Tomorrow, 6 December, Friday

    Time Temperature Precipitation Wind Pressure Humidity
    00:00 +7°C° 0 mm 9 mps 757 mmHg 82%
    01:00 +8°C° 0.2 mm 9 mps 757 mmHg 85%
    02:00 +8°C° 0.2 mm 9 mps 756 mmHg 87%
    03:00 +8°C° 0.2 mm 9 mps 755 mmHg 90%
    04:00 +10°C° 0.2 mm 9 mps 755 mmHg 90%
    05:00 +10°C° 0.2 mm 9 mps 755 mmHg 90%
    06:00 +10°C° 0.2 mm 9 mps 755 mmHg 89%
    07:00 +10°C° 0.4 mm 9 mps 754 mmHg 90%
    08:00 +10°C° 0.4 mm 9 mps 754 mmHg 90%
    09:00 +11°C° 0.4 mm 9 mps 753 mmHg 90%
    10:00 +11°C° 0.1 mm 9 mps 753 mmHg 89%
    11:00 +11°C° 0.1 mm 9 mps 752 mmHg 89%
    12:00 +11°C° 0.1 mm 9 mps 752 mmHg 89%
    13:00 +11°C° 0.5 mm 9 mps 751 mmHg 88%
    14:00 +11°C° 0.5 mm 8 mps 750 mmHg 87%
    15:00 +11°C° 0.5 mm 8 mps 749 mmHg 86%
    16:00 +10°C° 0.2 mm 8 mps 750 mmHg 84%
    17:00 +10°C° 0.2 mm 8 mps 750 mmHg 81%
    18:00 +9°C° 0.2 mm 8 mps 750 mmHg 79%
    19:00 +7°C° 0 mm 8 mps 751 mmHg 81%
    20:00 +8°C° 0 mm 7 mps 752 mmHg 82%
    21:00 +6°C° 0 mm 7 mps 753 mmHg 84%
    22:00 +7°C° 0 mm 6 mps 754 mmHg 85%
    23:00 +5°C° 0 mm 6 mps 754 mmHg 87%

    Day after tomorrow, 7 December, Saturday

    Time Temperature Precipitation Wind Pressure Humidity
    00:00 +5°C° 0 mm 6 mps 755 mmHg 88%
    01:00 +6°C° 0 mm 5 mps 755 mmHg 89%
    02:00 +6°C° 0 mm 5 mps 756 mmHg 90%
    03:00 +5°C° 0 mm 5 mps 756 mmHg 91%
    04:00 +5°C° 0 mm 5 mps 756 mmHg 91%
    05:00 +5°C° 0 mm 5 mps 757 mmHg 92%
    06:00 +5°C° 0 mm 4 mps 757 mmHg 92%
    07:00 +5°C° 0 mm 4 mps 757 mmHg 92%
    08:00 +5°C° 0 mm 4 mps 758 mmHg 91%
    09:00 +5°C° 0 mm 4 mps 758 mmHg 91%
    10:00 +6°C° 0 mm 4 mps 758 mmHg 87%
    11:00 +7°C° 0 mm 5 mps 758 mmHg 82%
    12:00 +8°C° 0 mm 5 mps 758 mmHg 78%
    13:00 +8°C° 0 mm 5 mps 758 mmHg 80%
    14:00 +8°C° 0 mm 4 mps 758 mmHg 82%
    15:00 +7°C° 0 mm 4 mps 758 mmHg 84%
    16:00 +7°C° 0 mm 4 mps 758 mmHg 87%
    17:00 +7°C° 0 mm 4 mps 757 mmHg 89%
    18:00 +6°C° 0 mm 4 mps 757 mmHg 92%
    19:00 +7°C° 0 mm 5 mps 757 mmHg 91%
    20:00 +8°C° 0 mm 6 mps 756 mmHg 90%
    21:00 +8°C° 0 mm 7 mps 756 mmHg 89%
    22:00 +9°C° 0 mm 8 mps 755 mmHg 89%
    23:00 +8°C° 0 mm 9 mps 754 mmHg 88%

    8 December, Sunday

    Time Temperature Precipitation Wind Pressure Humidity
    00:00 +8°C° 0 mm 10 mps 753 mmHg 87%
    01:00 +9°C° 1.4 mm 10 mps 751 mmHg 89%
    02:00 +9°C° 1.4 mm 11 mps 750 mmHg 90%
    03:00 +9°C° 1.4 mm 11 mps 749 mmHg 92%
    04:00 +11°C° 0.1 mm 10 mps 749 mmHg 90%
    05:00 +11°C° 0.1 mm 9 mps 749 mmHg 87%
    06:00 +11°C° 0.1 mm 7 mps 749 mmHg 85%
    07:00 +9°C° 0 mm 7 mps 750 mmHg 82%
    08:00 +8°C° 0 mm 7 mps 751 mmHg 79%
    09:00 +7°C° 0 mm 6 mps 751 mmHg 77%
    10:00 +6°C° 0 mm 7 mps 751 mmHg 75%
    11:00 +7°C° 0 mm 8 mps 751 mmHg 73%
    12:00 +8°C° 0 mm 9 mps 751 mmHg 71%
    13:00 +7°C° 0.3 mm 9 mps 750 mmHg 74%
    14:00 +6°C° 0.3 mm 10 mps 750 mmHg 77%
    15:00 +6°C° 0.3 mm 10 mps 749 mmHg 80%
    16:00 +5°C° 0.1 mm 10 mps 749 mmHg 79%
    17:00 +5°C° 0.1 mm 9 mps 749 mmHg 78%
    18:00 +5°C° 0.1 mm 9 mps 749 mmHg 77%
    19:00 +5°C° 0 mm 10 mps 748 mmHg 76%
    20:00 +5°C° 0 mm 10 mps 748 mmHg 76%
    21:00 +4°C° 0 mm 11 mps 748 mmHg 75%
    22:00 +4°C° 0.2 mm 12 mps 747 mmHg 77%
    23:00 +4°C° 0.2 mm 12 mps 747 mmHg 78%

    9 December, Monday

    Time Temperature Precipitation Wind Pressure Humidity
    00:00 +4°C° 0.2 mm 12 mps 746 mmHg 80%
    01:00 +4°C° 0.2 mm 12 mps 746 mmHg 79%
    02:00 +5°C° 0.2 mm 12 mps 745 mmHg 78%
    03:00 +5°C° 0.2 mm 12 mps 745 mmHg 77%
    04:00 +5°C° 0.2 mm 13 mps 745 mmHg 74%
    05:00 +7°C° 0.2 mm 13 mps 746 mmHg 70%
    06:00 +7°C° 0.2 mm 13 mps 747 mmHg 67%
    07:00 +7°C° 0 mm 12 mps 748 mmHg 67%
    08:00 +7°C° 0 mm 11 mps 750 mmHg 68%
    09:00 +7°C° 0 mm 10 mps 752 mmHg 68%
    10:00 +7°C° 0 mm 10 mps 753 mmHg 66%
    11:00 +7°C° 0 mm 10 mps 755 mmHg 63%
    12:00 +7°C° 0 mm 10 mps 756 mmHg 61%
    13:00 +7°C° 0 mm 9 mps 757 mmHg 63%
    14:00 +8°C° 0 mm 7 mps 758 mmHg 66%
    15:00 +7°C° 0 mm 6 mps 759 mmHg 68%
    16:00 +7°C° 0 mm 6 mps 760 mmHg 73%
    17:00 +6°C° 0 mm 5 mps 760 mmHg 77%
    18:00 +5°C° 0 mm 4 mps 761 mmHg 82%
    19:00 +5°C° 0 mm 4 mps 761 mmHg 83%
    20:00 +5°C° 0 mm 4 mps 761 mmHg 85%
    21:00 +5°C° 0 mm 4 mps 761 mmHg 87%
    22:00 +6°C° 0 mm 5 mps 761 mmHg 86%
    23:00 +6°C° 0 mm 5 mps 760 mmHg 86%

    10 December, Tuesday

    Time Temperature Precipitation Wind Pressure Humidity
    00:00 +7°C° 0 mm 6 mps 760 mmHg 85%
    01:00 +6°C° 0.1 mm 7 mps 759 mmHg 85%
    02:00 +8°C° 0.1 mm 7 mps 758 mmHg 85%
    03:00 +7°C° 0.1 mm 8 mps 757 mmHg 85%
    04:00 +7°C° 1 mm 9 mps 755 mmHg 87%
    05:00 +8°C° 1 mm 10 mps 754 mmHg 89%
    06:00 +8°C° 1 mm 10 mps 753 mmHg 90%
    07:00 +9°C° 0.7 mm 11 mps 752 mmHg 91%
    08:00 +9°C° 0.7 mm 11 mps 751 mmHg 92%
    09:00 +11°C° 0.7 mm 11 mps 750 mmHg 92%
    10:00 +10°C° 0.1 mm 12 mps 749 mmHg 91%
    11:00 +12°C° 0.1 mm 12 mps 748 mmHg 89%
    12:00 +12°C° 0.1 mm 12 mps 747 mmHg 87%
    13:00 +12°C° 0.1 mm 12 mps 747 mmHg 87%
    14:00 +12°C° 0.1 mm 12 mps 746 mmHg 87%
    15:00 +12°C° 0.1 mm 13 mps 745 mmHg 87%
    16:00 +12°C° 0 mm 13 mps 744 mmHg 86%
    17:00 +12°C° 0 mm 13 mps 744 mmHg 85%
    18:00 +12°C° 0 mm 14 mps 743 mmHg 84%
    19:00 +12°C° 0.7 mm 13 mps 743 mmHg 82%
    20:00 +11°C° 0.7 mm 11 mps 742 mmHg 80%
    21:00 +9°C° 0.7 mm 10 mps 742 mmHg 79%
    22:00 +8°C° 0.1 mm 10 mps 743 mmHg 77%
    23:00 +7°C° 0.1 mm 10 mps 743 mmHg 75%
    Show more